NOAA 16 DEB, 41068

Orbit data source: Space-Track

NOAA 16 DEB, 41068 is space debris in SSO originally from a launch on Thu, 21 Sep 2000 UTC launched from the Air Force Western Test Range (AFWTR). Debris objects in space refer to the collection of defunct objects orbiting the Earth. Examples of debris include non-operational satellites, rocket bodies, and fragments generated from explosions, collisions, or faulty payload assembly.

Loading next visibility...
NOAA 16 DEB details
Identifier
41068, 2000-055AB
Orbit
SSO
Last TLE update1 day ago
Origin
Flag of USNOAA (US)
ManufacturerUnknown
MissionSpacecraft
Bus & MotorUnknown
MassUnknown
Launch date (UTC)
2000-09-21 (24 years ago)
Launch vehicleUnknown
Launch site
Air Force Western Test Range (AFWTR)
Object type
Payload
Rocket body
Debris
Shape & HBRUnknown
Radar Cross SectionSmall (<0.1 m²)

Expand to show TLE details & history

TLE from 1 day ago
0 NOAA 16 DEB
1 41068U 00055AB  24360.30409107  .00007757  00000-0  22436-2 0  9993
2 41068  99.1147 291.7692 0147619 272.6436  85.7860 14.38636593474531
Epoch: 2024-12-25T07:17Z
Definitive object data (Epoch: 2024-12-25T07:17:53.468Z)
Latitude-0°
Longitude87.99665°
Altitude759.736 km
Speed7.478 km/s
True Right ascension19h 27m 04s
True Declination0° 00' 00"
Sunlit
Object was in daylight at TLE epoch
Visualization TLE readout
Latitude67.35262°
Longitude66.70308°
Altitude873.265 km
Speed7.37 km/s
Apparent Right ascension20h 23m 35s
Apparent Declination20° 37' 44"
Sunlit
Object is in daylight
Visualization observer readout
Local Sidereal Time09:40:57
Azimuth20.325° NNE
Elevation-26.822°
Doppler factor1
Orbital elements
Apogee altitude865.534 km
Perigee altitude654.785 km
Semi-major axis7,138.297 km
Eccentricity0.0147619
Inclination99.1147°
RAAN291.7692°
Arg. of periapsis272.6436°
True anomaly87.47506°
Mean anomaly85.786°
Eccentric anomaly86.63033°
Mean motion3.59875 °/min
BSTAR0.0022436
Orbital period100.03 mins
Loading maneuver chart data...
Loading historical data...
Loading historical data...
Loading historical data...
Loading historical data...
Loading historical data...
Loading historical data...
Loading historical data...

NOAA 16 DEB Visibility forecast

Observer location: undefined°, undefined

Span
Click to sort rows by Start time (UTC) header in descending order
Start Az.
Max El. time (UTC)
Max El. Az.
Max El.
End time (UTC)
End Az.
8 mins2024-12-26 18:29:47.865Z113.333° SE2024-12-26 18:33:47.865Z62.041° ENE22.196°2024-12-26 18:37:47.865Z13.384° NNE
8 mins2024-12-26 20:08:47.865Z195.96° SSW2024-12-26 20:11:47.865Z247.086° WSW35.308°2024-12-26 20:16:47.865Z330.981° NNW
9 mins2024-12-27 08:17:47.865Z24.354° NE2024-12-27 08:21:47.865Z84.845° E40.596°2024-12-27 08:26:47.865Z180.367° SSW
6 mins2024-12-27 09:57:47.865Z331.903° NNW2024-12-27 10:00:47.865Z293.083° NW17.837°2024-12-27 10:03:47.865Z257.638° W
|